• MPC Preparation (Info)

  • MPEC 2011-X10 : 2003 XV

    The following Minor Planet Electronic Circular may be linked-to from your own Web pages, but must not otherwise be redistributed electronically.

    A form allowing access to any MPEC is at the bottom of this page.


    Read MPEC 2011-X09 Read MPEC 2011-X11


    M.P.E.C. 2011-X10                                Issued 2011 Dec. 1, 21:10 UT
    
         The Minor Planet Electronic Circulars contain information on unusual
             minor planets and routine data on comets.  They are published
       on behalf of Commission 20 of the International Astronomical Union by the
              Minor Planet Center, Smithsonian Astrophysical Observatory,
                              Cambridge, MA 02138, U.S.A.
    
                 Prepared using the Tamkin Foundation Computer Network
    
                                  MPC@CFA.HARVARD.EDU
                URL https://www.minorplanetcenter.net/    ISSN 1523-6714
    
                                        2003 XV
    
                               Revision to MPEC 2003-X28
    
    Additional Observations:
         K03X00V  C2011 11 30.41360 02 54 14.719+28 16 54.69         20.9 wLEX010F51
         K03X00V  C2011 11 30.42717 02 54 13.216+28 16 29.19         20.9 wLEX010F51
         K03X00V  C2011 11 30.44068 02 54 11.756+28 16 02.95         20.9 wLEX010F51
         K03X00V  C2011 11 30.45424 02 54 10.336+28 15 36.17         21.0 wLEX010F51
         K03X00V KC2011 11 30.91065 02 54 03.74 +28 00 24.3          20.6 VuEX010I93
         K03X00V KC2011 11 30.93900 02 54 00.82 +27 59 28.5          21.1 VuEX010I93
         K03X00V KC2011 12 01.07039 02 54 04.22 +27 55 00.8          20.2 VoEX010H21
         K03X00V KC2011 12 01.08745 02 54 02.55 +27 54 29.8          20.6 VoEX010H21
         K03X00V KC2011 12 01.10002 02 54 01.26 +27 54 05.8          20.8 VoEX010H21
         K03X00V %C2011 12 01.34110 02 53 49.27 +27 46 31.2          19.9 RoEX010F65
         K03X00V %C2011 12 01.34244 02 53 49.09 +27 46 28.2          20.1 RoEX010F65
         K03X00V %C2011 12 01.34382 02 53 48.91 +27 46 25.1          19.9 RoEX010F65
         K03X00V %C2011 12 01.34520 02 53 48.73 +27 46 22.0          20.1 RoEX010F65
         K03X00V KC2011 12 01.82199 02 53 41.50 +27 25 26.3          19.9 RoEX010J04
         K03X00V KC2011 12 01.82710 02 53 41.01 +27 25 14.8          19.9 RoEX010J04
    
    Observer details:
    F51 Pan-STARRS 1, Haleakala.  Observers N. Primak, A. Schultz, S. Watters,
        J. Thiel, T. Goggia.  Measurer PS1 Science Consortium.  1.8-m
        Ritchey-Chretien + CCD.
    F65 Haleakala-Faulkes Telescope North.  Observer T. Lister.  2.0-m f/10
        Ritchey-Chretien + CCD.
    H21 Astronomical Research Observatory, Westfield.  Observer R. Holmes.
        Measurers L. Buzzi, H. Devore, S. Foglia, T. Vorobjov.  0.61-m f/4.5
        astrograph + CCD.
    I93 St Pardon de Conques.  Observer F. Losse.  0.40-m f/5.0 reflector + CCD.
    J04 ESA Optical Ground Station, Tenerife.  Observer P. Ruiz.  Measurers
        D. Koschny, M. Busch, A. Knoefel.  1.0-m f/4.4 reflector + CCD.
    
    Orbital elements:
    2003 XV                                                  Earth MOID = 0.0020 AU
    Epoch 2011 Aug. 27.0 TT = JDT 2455800.5                 MPC
    M 309.14135              (2000.0)            P               Q
    n   0.36948927     Peri.  231.09646     -0.55645836     -0.82700865
    a   1.9233936      Node   252.89524     +0.78589526     -0.49260784
    e   0.5513919      Incl.    4.80546     +0.26967154     -0.27091366
    P   2.67           H   26.8           G   0.15           U   0
    Residuals in seconds of arc
    031201 691  0.2-  0.1+    031205 620  0.9-  0.8+    031206 620  0.4-  0.2+
    031201 691  0.1+  0.2-    031205 620  0.4-  0.5+    031206 620  0.1+  0.1-
    031201 691  0.1+  0.3-    031205 620  1.2-  0.9+    031206 670  0.7+  0.0
    031201 649  0.4-  0.3+    031205 620  0.3-  0.1-    031206 670  0.2+  0.3+
    031201 649  0.3-  0.2+    031205 620  0.2-  0.2+    031206 670  0.2+  0.6-
    031201 649  0.4-  0.7+    031205 587  0.3-  0.8-    031206 670  0.2-  0.0
    031201 649  0.3-  0.9-    031205 587  0.4-  1.2-    031206 670  0.4+  0.6-
    031204 704  0.9-  0.1+    031205 587  0.8+  0.8+    111130 F51  0.1+  0.2-
    031204 704  0.5-  0.2+    031205 587  1.0-  1.3+    111130 F51  0.0   0.2-
    031204 704  0.2+  0.5+    031205 J95  0.0   0.4-    111130 F51  0.0   0.3-
    031204 704  0.5-  0.7+    031205 J95  0.7+  0.1+    111130 F51  0.1+  0.2-
    031204 704  0.5-  0.4+    031205 J95  0.3+  0.3-    111130 I93  0.3-  0.2-
    031205 673  0.2-  0.0     031205 620  0.3-  0.3-    111130 I93  0.6-  0.5+
    031205 673  0.6-  0.2+    031205 620  0.5-  0.1+    111201 H21  0.1+  0.3-
    031205 673  0.7-  0.6+    031205 620  0.1-  0.3-    111201 H21  0.1-  0.2+
    031205 673 (2.0+  1.2-)   031205 620  1.1+  0.7-    111201 H21  0.4-  0.1-
    031205 673  1.5+  0.4-    031205 620  0.7-  0.3+    111201 F65  0.4-  0.0
    031205 673  0.1-  0.8+    031206 620  0.4-  0.9+    111201 F65  0.4-  0.1-
    031205 673  0.4+  0.8+    031206 620  0.8-  0.3+    111201 F65  0.4-  0.1-
    031205 926  0.3-  0.1+    031206 620  1.3-  0.9+    111201 F65  0.4-  0.1-
    031205 926  0.6-  0.1-    031206 620 (1.5-  1.2+)   111201 J04  0.4-  0.4+
    031205 926 (1.8-  0.2-)   031206 620  0.2+  0.0     111201 J04  0.3-  0.4+
    031205 620  0.2-  0.8+    031206 620  1.0+  0.1+
    
    Ephemeris:
    2003 XV                  a,e,i = 1.92, 0.55, 5                   q = 0.8628
    Date    TT    R. A. (2000) Decl.     Delta      r     Elong.  Phase     V
    2011 11 01    03 02 02.7 +29 27 27   0.2741  1.2565   162.2    13.9    25.3
    ...
    2011 11 16    02 59 41.2 +30 05 59   0.1509  1.1368   167.3    11.0    23.7
    ...
    2011 11 24    02 57 02.5 +29 45 57   0.09213 1.0762   163.7    14.9    22.6
    ...
    2011 11 30    02 54 31.5 +28 27 37   0.05008 1.0333   159.1    19.9    21.4
    2011 12 01    02 53 59.5 +27 58 23   0.04318 1.0264   158.2    20.9    21.1
    2011 12 02    02 53 21.7 +27 17 51   0.03631 1.0196   157.3    21.9    20.7
    ...
    2011 12 08    15 27 27.3 -59 11 39   0.0056440.9808    39.8   140.0    22.4
    ...
    2011 12 16    14 58 41.7 -33 16 58   0.06009 0.9356    34.9   143.0    27.8
    ...
    2011 12 31    15 08 34.5 -31 33 36   0.1666  0.8779    46.9   125.2    27.9
    
    Gareth V. Williams           (C) Copyright 2011 MPC           M.P.E.C. 2011-X10
    

    Read MPEC 2011-X09 Read MPEC 2011-X11


    MPEC number:

    Enter an MPEC number in one of the following forms:

    • 1997-B01 (the full form)
    • J97B01 (the packed version of the full form)
    • B01 (the abbreviated form)